Location: Unspecified
(50.7693°N, 0.0000°E)
Time: 02:08:56
(UTC+00:00)

Vanguard 2 - Pass Details

Date: 18 June 2019
Orbit: 553 x 2938 km, 32.9° (Epoch: 17 August)

Event Time Altitude Azimuth Distance (km) Brightness Sun altitude
Rises 08:50:05 0° 204° (SSW) 3,607 10.9 44.3°
Reaches altitude 10° 08:53:34 10° 182° (S) 3,021 10.9 44.8°
Maximum altitude 08:57:48 16° 147° (SSE) 3,036 11.4 45.4°
Drops below altitude 10° 09:03:10 10° 115° (ESE) 4,016 12.2 46.2°
Sets 09:09:05 0° 98° (E) 5,562 12.6 47.1°
